Regional Weather Roundup
Issued by NWS

Home | Current Version | Previous Version | Graphics & Text | Print | Product List | Glossary On
Versions: 1 2 3 4 5 6 7 8 9 10 11 12 13 14 15 16 17 18 19 20 21 22 23 24 25 26 27 28 29 30 31 32 33 34 35 36 37 38 39 40 41 42 43 44 45 46 47 48 49 50
000
ASUS43 KLSX 250507
RWRMO

WEATHER SUMMARY FOR MISSOURI
NATIONAL WEATHER SERVICE SPRINGFIELD MO
1200 AM CDT SAT OCT 25 2014

NOTE: "FAIR" INDICATES FEW OR NO CLOUDS BELOW 12,000 FEET WITH NO
       SIGNIFICANT WEATHER AND/OR OBSTRUCTIONS TO VISIBILITY.
       CURRENT SKY AND/OR WEATHER CONDITIONS ARE NOT AVAILABLE FOR
       CHILLICOTHE AND FARMINGTON.

MOZ001>031-035>038-043-044-053-054-250600-
...NORTHERN AND WESTERN MISSOURI...

CITY           SKY/WX    TMP DP  RH WIND       PRES   REMARKS
KANSAS CTY INT CLEAR     62  60  93 S9        29.99S
KANSAS C DTWN  CLEAR     67  61  81 W3        29.99S
LEE`S SUMMIT   CLEAR     64  60  87 SW7       30.00S
ST JOSEPH      CLEAR     58  57  97 CALM      29.98S FOG
CHILLICOTHE      N/A     59  57  93 CALM      29.99S
KIRKSVILLE     PTCLDY    60  59  96 CALM      29.99R

$$
MOZ066>068-077>081-088>096-101>105-250600-
...SOUTHWEST MISSOURI...

CITY           SKY/WX    TMP DP  RH WIND       PRES   REMARKS
SPRINGFIELD    CLEAR     61  58  90 S8        30.05F
JOPLIN         CLEAR     64  59  83 S9        30.05S

$$
MOZ032>034-039>042-045>050-055>058-069>072-250600-
...CENTRAL MISSOURI...

CITY           SKY/WX    TMP DP  RH WIND       PRES   REMARKS
COLUMBIA       CLEAR     64  60  87 SW8       30.01S
JEFFERSON CITY CLEAR     63  59  87 CALM      30.01S
ROLLA          CLEAR     61  57  87 SW13      30.02R
SEDALIA        CLEAR     66  60  81 SW12      30.02S
WHITEMAN AFB   FAIR      63  60  90 SW8       30.00S
OSAGE BEACH    CLEAR     63  57  82 SW5       30.03S

$$
MOZ051-052-059>065-250600-
...EAST CENTRAL MISSOURI...

CITY           SKY/WX    TMP DP  RH WIND       PRES   REMARKS
ST LOUIS INTL  PTCLDY    65  55  70 SW8       29.99F
SPIRIT OF STL  CLEAR     63  57  81 W5        29.98S
ST CHARLES     PTCLDY    57  52  83 CALM      29.98F

$$
MOZ072>076-082>087-097>100-106>115-250600-
...SOUTH CENTRAL AND SOUTHEAST MISSOURI...

CITY           SKY/WX    TMP DP  RH WIND       PRES   REMARKS
CAPE GIRARDEAU PTCLDY    55  51  86 CALM      30.05F
FARMINGTON     PTCLDY    61  55  82 S5        30.05F
POPLAR BLUFF   CLEAR     55  52  89 CALM      30.04F FOG
WEST PLAINS    CLEAR     60  55  83 SW6       30.07F

$$



USA.gov is the U.S. government's official web portal to all federal, state and local government web resources and services.